Time,TemperatureF,DewpointF,PressureIn,WindDirection,WindDirectionDegrees,WindSpeedMPH,WindSpeedGustMPH,Humidity,HourlyPrecipIn,Conditions,Clouds,dailyrainin,SolarRadiationWatts/m^2,SoftwareType,DateUTC
2013-06-16 00:01:00,69.0,55.0,-100.00,East,88,16.0,20.0,62,0.00,,,0.00,0.000000,,2013-06-16 10:01:00,
2013-06-16 00:12:00,69.0,55.0,-100.00,East,88,16.0,20.0,62,0.00,,,0.00,0.000000,,2013-06-16 10:12:00,
2013-06-16 00:22:00,69.0,55.0,-100.00,East,88,16.0,20.0,62,0.00,,,0.00,0.000000,,2013-06-16 10:22:00,
2013-06-16 00:33:00,69.0,55.0,-100.00,East,88,16.0,20.0,62,0.00,,,0.00,0.000000,,2013-06-16 10:33:00,
2013-06-16 00:54:00,69.0,56.0,-100.00,East,84,12.0,21.0,63,0.00,,,0.00,0.000000,,2013-06-16 10:54:00,
2013-06-16 01:02:00,69.0,56.0,-100.00,East,84,12.0,21.0,63,0.00,,,0.00,0.000000,,2013-06-16 11:02:00,
2013-06-16 01:11:00,69.0,56.0,-100.00,East,84,12.0,21.0,63,0.00,,,0.00,0.000000,,2013-06-16 11:11:00,
2013-06-16 01:22:00,69.0,56.0,-100.00,East,84,12.0,21.0,63,0.00,,,0.00,0.000000,,2013-06-16 11:22:00,
2013-06-16 01:33:00,69.0,56.0,-100.00,East,84,12.0,21.0,63,0.00,,,0.00,0.000000,,2013-06-16 11:33:00,
2013-06-16 02:02:00,69.0,56.0,-100.00,East,89,13.0,19.0,64,0.00,,,0.00,0.000000,,2013-06-16 12:02:00,
2013-06-16 02:11:00,69.0,56.0,-100.00,East,89,13.0,19.0,64,0.00,,,0.00,0.000000,,2013-06-16 12:11:00,
2013-06-16 02:22:00,69.0,56.0,-100.00,East,89,13.0,19.0,64,0.00,,,0.00,0.000000,,2013-06-16 12:22:00,
2013-06-16 02:32:00,69.0,56.0,-100.00,East,89,13.0,19.0,64,0.00,,,0.00,0.000000,,2013-06-16 12:32:00,
2013-06-16 03:01:00,69.0,55.0,-100.00,East,87,16.0,22.0,62,0.00,,,0.00,0.000000,,2013-06-16 13:01:00,
2013-06-16 03:11:00,69.0,55.0,-100.00,East,87,16.0,22.0,62,0.00,,,0.00,0.000000,,2013-06-16 13:11:00,
2013-06-16 03:22:00,69.0,55.0,-100.00,East,87,16.0,22.0,62,0.00,,,0.00,0.000000,,2013-06-16 13:22:00,
2013-06-16 03:34:00,69.0,55.0,-100.00,East,87,16.0,22.0,62,0.00,,,0.00,0.000000,,2013-06-16 13:34:00,
2013-06-16 04:02:00,69.0,55.0,-100.00,ENE,77,15.0,21.0,62,0.00,,,0.00,0.000000,,2013-06-16 14:02:00,
2013-06-16 04:12:00,69.0,55.0,-100.00,ENE,77,15.0,21.0,62,0.00,,,0.00,0.000000,,2013-06-16 14:12:00,
2013-06-16 04:22:00,69.0,55.0,-100.00,ENE,77,15.0,21.0,62,0.00,,,0.00,0.000000,,2013-06-16 14:22:00,
2013-06-16 04:34:00,69.0,55.0,-100.00,ENE,77,15.0,21.0,62,0.00,,,0.00,0.000000,,2013-06-16 14:34:00,
2013-06-16 05:02:00,70.0,55.0,-100.00,ENE,72,17.0,24.0,60,0.00,,,0.00,0.000000,,2013-06-16 15:02:00,
2013-06-16 05:12:00,70.0,55.0,-100.00,ENE,72,17.0,24.0,60,0.00,,,0.00,0.000000,,2013-06-16 15:12:00,
2013-06-16 05:22:00,70.0,55.0,-100.00,ENE,72,17.0,24.0,60,0.00,,,0.00,0.000000,,2013-06-16 15:22:00,
2013-06-16 05:33:00,70.0,55.0,-100.00,ENE,72,17.0,24.0,60,0.00,,,0.00,0.000000,,2013-06-16 15:33:00,
2013-06-16 06:01:00,69.0,56.0,-100.00,East,82,17.0,26.0,64,0.00,,,0.00,0.000000,,2013-06-16 16:01:00,
2013-06-16 06:12:00,69.0,56.0,-100.00,East,82,17.0,26.0,64,0.00,,,0.00,0.000000,,2013-06-16 16:12:00,
2013-06-16 06:22:00,69.0,56.0,-100.00,East,82,17.0,26.0,64,0.00,,,0.00,0.000000,,2013-06-16 16:22:00,
2013-06-16 06:33:00,69.0,56.0,-100.00,East,82,17.0,26.0,64,0.00,,,0.00,0.000000,,2013-06-16 16:33:00,
2013-06-16 07:01:00,70.0,57.0,-100.00,East,98,12.0,28.0,64,0.00,,,0.00,46.000000,,2013-06-16 17:01:00,
2013-06-16 07:11:00,70.0,57.0,-100.00,East,98,12.0,28.0,64,0.00,,,0.00,46.000000,,2013-06-16 17:11:00,
2013-06-16 07:22:00,70.0,57.0,-100.00,East,98,12.0,28.0,64,0.00,,,0.00,46.000000,,2013-06-16 17:22:00,
2013-06-16 07:34:00,70.0,57.0,-100.00,East,98,12.0,28.0,64,0.00,,,0.00,46.000000,,2013-06-16 17:34:00,
2013-06-16 08:02:00,76.0,57.0,-100.00,East,86,15.0,29.0,52,0.00,,,0.00,251.000000,,2013-06-16 18:02:00,
2013-06-16 08:12:00,76.0,57.0,-100.00,East,86,15.0,29.0,52,0.00,,,0.00,251.000000,,2013-06-16 18:12:00,
2013-06-16 08:22:00,76.0,57.0,-100.00,East,86,15.0,29.0,52,0.00,,,0.00,251.000000,,2013-06-16 18:22:00,
2013-06-16 08:33:00,76.0,57.0,-100.00,East,86,15.0,29.0,52,0.00,,,0.00,251.000000,,2013-06-16 18:33:00,
2013-06-16 08:52:00,79.0,58.0,-100.00,ENE,59,14.0,24.0,48,0.00,,,0.00,488.000000,,2013-06-16 18:52:00,
2013-06-16 09:01:00,79.0,58.0,-100.00,ENE,59,14.0,24.0,48,0.00,,,0.00,488.000000,,2013-06-16 19:01:00,
2013-06-16 09:11:00,79.0,58.0,-100.00,ENE,59,14.0,24.0,48,0.00,,,0.00,488.000000,,2013-06-16 19:11:00,
2013-06-16 09:22:00,79.0,58.0,-100.00,ENE,59,14.0,24.0,48,0.00,,,0.00,488.000000,,2013-06-16 19:22:00,
2013-06-16 09:33:00,79.0,58.0,-100.00,ENE,59,14.0,24.0,48,0.00,,,0.00,488.000000,,2013-06-16 19:33:00,
2013-06-16 10:02:00,82.0,57.0,-100.00,NE,52,14.0,23.0,42,0.00,,,0.00,710.000000,,2013-06-16 20:02:00,
2013-06-16 10:11:00,82.0,57.0,-100.00,NE,52,14.0,23.0,42,0.00,,,0.00,710.000000,,2013-06-16 20:11:00,
2013-06-16 10:22:00,82.0,57.0,-100.00,NE,52,14.0,23.0,42,0.00,,,0.00,710.000000,,2013-06-16 20:22:00,
2013-06-16 10:33:00,82.0,57.0,-100.00,NE,52,14.0,23.0,42,0.00,,,0.00,710.000000,,2013-06-16 20:33:00,
2013-06-16 11:01:00,85.0,59.0,-100.00,NE,40,9.0,22.0,41,0.00,,,0.00,891.000000,,2013-06-16 21:01:00,
2013-06-16 11:11:00,85.0,59.0,-100.00,NE,40,9.0,22.0,41,0.00,,,0.00,891.000000,,2013-06-16 21:11:00,
2013-06-16 11:21:00,85.0,59.0,-100.00,NE,40,9.0,22.0,41,0.00,,,0.00,891.000000,,2013-06-16 21:21:00,
2013-06-16 11:32:00,85.0,59.0,-100.00,NE,40,9.0,22.0,41,0.00,,,0.00,891.000000,,2013-06-16 21:32:00,
2013-06-16 11:53:00,82.0,60.0,-100.00,NW,324,9.0,21.0,47,0.00,,,0.00,791.000000,,2013-06-16 21:53:00,
2013-06-16 12:01:00,82.0,60.0,-100.00,NW,324,9.0,21.0,47,0.00,,,0.00,791.000000,,2013-06-16 22:01:00,
2013-06-16 12:12:00,82.0,60.0,-100.00,NW,324,9.0,21.0,47,0.00,,,0.00,791.000000,,2013-06-16 22:12:00,
2013-06-16 12:22:00,82.0,60.0,-100.00,NW,324,9.0,21.0,47,0.00,,,0.00,791.000000,,2013-06-16 22:22:00,
2013-06-16 12:32:00,82.0,60.0,-100.00,NW,324,9.0,21.0,47,0.00,,,0.00,791.000000,,2013-06-16 22:32:00,
2013-06-16 13:01:00,81.0,59.0,-100.00,NNW,333,7.0,20.0,48,0.00,,,0.00,646.000000,,2013-06-16 23:01:00,
2013-06-16 13:11:00,81.0,59.0,-100.00,NNW,333,7.0,20.0,48,0.00,,,0.00,646.000000,,2013-06-16 23:11:00,
2013-06-16 13:22:00,81.0,59.0,-100.00,NNW,333,7.0,20.0,48,0.00,,,0.00,646.000000,,2013-06-16 23:22:00,
2013-06-16 13:32:00,81.0,59.0,-100.00,NNW,333,7.0,20.0,48,0.00,,,0.00,646.000000,,2013-06-16 23:32:00,
2013-06-16 14:02:00,79.0,65.0,-100.00,West,272,11.0,17.0,62,0.00,,,0.00,323.000000,,2013-06-17 00:02:00,
2013-06-16 14:11:00,79.0,65.0,-100.00,West,272,11.0,17.0,62,0.00,,,0.00,323.000000,,2013-06-17 00:11:00,
2013-06-16 14:22:00,79.0,65.0,-100.00,West,272,11.0,17.0,62,0.00,,,0.00,323.000000,,2013-06-17 00:22:00,
2013-06-16 14:32:00,79.0,65.0,-100.00,West,272,11.0,17.0,62,0.00,,,0.00,323.000000,,2013-06-17 00:32:00,
2013-06-16 15:02:00,78.0,65.0,-100.00,West,274,10.0,19.0,65,0.00,,,0.00,218.000000,,2013-06-17 01:02:00,
2013-06-16 15:11:00,78.0,65.0,-100.00,West,274,10.0,19.0,65,0.00,,,0.00,218.000000,,2013-06-17 01:11:00,
2013-06-16 15:22:00,78.0,65.0,-100.00,West,274,10.0,19.0,65,0.00,,,0.00,218.000000,,2013-06-17 01:22:00,
2013-06-16 15:32:00,78.0,65.0,-100.00,West,274,10.0,19.0,65,0.00,,,0.00,218.000000,,2013-06-17 01:32:00,
2013-06-16 16:02:00,80.0,60.0,-100.00,NNE,25,7.0,13.0,50,0.00,,,0.00,241.000000,,2013-06-17 02:02:00,
2013-06-16 16:12:00,80.0,60.0,-100.00,NNE,25,7.0,13.0,50,0.00,,,0.00,241.000000,,2013-06-17 02:12:00,
2013-06-16 16:22:00,80.0,60.0,-100.00,NNE,25,7.0,13.0,50,0.00,,,0.00,241.000000,,2013-06-17 02:22:00,
2013-06-16 16:34:00,80.0,60.0,-100.00,NNE,25,7.0,13.0,50,0.00,,,0.00,241.000000,,2013-06-17 02:34:00,
2013-06-16 17:02:00,79.0,61.0,-100.00,NE,47,11.0,20.0,55,0.00,,,0.00,211.000000,,2013-06-17 03:02:00,
2013-06-16 17:12:00,79.0,61.0,-100.00,NE,47,11.0,20.0,55,0.00,,,0.00,211.000000,,2013-06-17 03:12:00,
2013-06-16 17:22:00,79.0,61.0,-100.00,NE,47,11.0,20.0,55,0.00,,,0.00,211.000000,,2013-06-17 03:22:00,
2013-06-16 17:33:00,79.0,61.0,-100.00,NE,47,11.0,20.0,55,0.00,,,0.00,211.000000,,2013-06-17 03:33:00,
2013-06-16 18:02:00,78.0,63.0,-100.00,NE,34,10.0,21.0,60,0.00,,,0.00,168.000000,,2013-06-17 04:02:00,
2013-06-16 18:12:00,78.0,63.0,-100.00,NE,34,10.0,21.0,60,0.00,,,0.00,168.000000,,2013-06-17 04:12:00,
2013-06-16 18:22:00,78.0,63.0,-100.00,NE,34,10.0,21.0,60,0.00,,,0.00,168.000000,,2013-06-17 04:22:00,
2013-06-16 18:33:00,78.0,63.0,-100.00,NE,34,10.0,21.0,60,0.00,,,0.00,168.000000,,2013-06-17 04:33:00,
2013-06-16 19:02:00,77.0,63.0,-100.00,NE,44,7.0,23.0,61,0.00,,,0.00,100.000000,,2013-06-17 05:02:00,
2013-06-16 19:11:00,77.0,63.0,-100.00,NE,44,7.0,23.0,61,0.00,,,0.00,100.000000,,2013-06-17 05:11:00,
2013-06-16 19:22:00,77.0,63.0,-100.00,NE,44,7.0,23.0,61,0.00,,,0.00,100.000000,,2013-06-17 05:22:00,
2013-06-16 19:33:00,77.0,63.0,-100.00,NE,44,7.0,23.0,61,0.00,,,0.00,100.000000,,2013-06-17 05:33:00,
2013-06-16 20:02:00,74.0,62.0,-100.00,ENE,76,17.0,24.0,66,0.00,,,0.00,14.000000,,2013-06-17 06:02:00,
2013-06-16 20:12:00,74.0,62.0,-100.00,ENE,76,17.0,24.0,66,0.00,,,0.00,14.000000,,2013-06-17 06:12:00,
2013-06-16 20:22:00,74.0,62.0,-100.00,ENE,76,17.0,24.0,66,0.00,,,0.00,14.000000,,2013-06-17 06:22:00,
2013-06-16 20:32:00,74.0,62.0,-100.00,ENE,76,17.0,24.0,66,0.00,,,0.00,14.000000,,2013-06-17 06:32:00,
2013-06-16 21:02:00,73.0,63.0,-100.00,ENE,78,17.0,25.0,71,0.00,,,0.00,0.000000,,2013-06-17 07:02:00,
2013-06-16 21:12:00,73.0,63.0,-100.00,ENE,78,17.0,25.0,71,0.00,,,0.00,0.000000,,2013-06-17 07:12:00,
2013-06-16 21:22:00,73.0,63.0,-100.00,ENE,78,17.0,25.0,71,0.00,,,0.00,0.000000,,2013-06-17 07:22:00,
2013-06-16 21:33:00,73.0,63.0,-100.00,ENE,78,17.0,25.0,71,0.00,,,0.00,0.000000,,2013-06-17 07:33:00,
2013-06-16 22:01:00,72.0,62.0,-100.00,East,80,16.0,26.0,70,0.00,,,0.00,0.000000,,2013-06-17 08:01:00,
2013-06-16 22:11:00,72.0,62.0,-100.00,East,80,16.0,26.0,70,0.00,,,0.00,0.000000,,2013-06-17 08:11:00,
2013-06-16 22:22:00,72.0,62.0,-100.00,East,80,16.0,26.0,70,0.00,,,0.00,0.000000,,2013-06-17 08:22:00,
2013-06-16 22:33:00,72.0,62.0,-100.00,East,80,16.0,26.0,70,0.00,,,0.00,0.000000,,2013-06-17 08:33:00,
2013-06-16 23:02:00,72.0,62.0,-100.00,East,88,12.0,23.0,70,0.00,,,0.00,0.000000,,2013-06-17 09:02:00,
2013-06-16 23:11:00,72.0,62.0,-100.00,East,88,12.0,23.0,70,0.00,,,0.00,0.000000,,2013-06-17 09:11:00,
2013-06-16 23:22:00,72.0,62.0,-100.00,East,88,12.0,23.0,70,0.00,,,0.00,0.000000,,2013-06-17 09:22:00,
2013-06-16 23:33:00,72.0,62.0,-100.00,East,88,12.0,23.0,70,0.00,,,0.00,0.000000,,2013-06-17 09:33:00,